EB2EMZ-3 Weather Reports


Display with metric or nautical units.
time (UTC)temp
F
wind
direction
speed
MPH
gust
MPH
rain 1hr
in
rain 24hr
in
rain mn
in
humidity
%
barometer
mb
20260506170430 68 247 0.0 4.0 0.00 0.00 0.00 63 1009.9
20260506165930 68 202 4.0 6.0 0.00 0.00 0.00 60 1010.0
20260506165430 68 225 6.0 6.0 0.00 0.00 0.00 60 1010.0
20260506164930 68 247 5.0 5.0 0.00 0.00 0.00 59 1009.9
20260506164430 68 247 5.0 5.0 0.00 0.00 0.00 59 1009.9
20260506163930 68 247 5.0 5.0 0.00 0.00 0.00 59 1009.9
20260506163430 68 180 5.0 5.0 0.00 0.00 0.00 59 1009.9
20260506162930 68 180 5.0 6.0 0.00 0.00 0.00 59 1009.7
20260506162430 69 225 5.0 5.0 0.00 0.00 0.00 58 1009.7
20260506161930 69 225 5.0 5.0 0.00 0.00 0.00 58 1009.7
20260506161430 69 135 5.0 5.0 0.00 0.00 0.00 57 1009.7
20260506160930 69 202 4.0 4.0 0.00 0.00 0.00 57 1009.7
20260506160430 70 135 2.0 2.0 0.00 0.00 0.00 57 1009.6
20260506155930 70 135 2.0 6.0 0.00 0.00 0.00 57 1009.7
20260506155430 70 225 6.0 6.0 0.00 0.00 0.00 56 1009.7
20260506154930 70 202 3.0 5.0 0.00 0.00 0.00 56 1009.7
20260506154430 70 202 0.0 8.0 0.00 0.00 0.00 56 1009.6
20260506153930 70 135 8.0 8.0 0.00 0.00 0.00 55 1009.7
20260506153430 70 135 8.0 8.0 0.00 0.00 0.00 55 1009.7
20260506152930 71 270 5.0 7.0 0.00 0.00 0.00 55 1009.8
20260506152430 71 202 7.0 8.0 0.00 0.00 0.00 55 1009.8
20260506151930 71 180 8.0 8.0 0.00 0.00 0.00 55 1009.8
20260506151430 70 180 0.0 5.0 0.00 0.00 0.00 55 1009.8
20260506150930 70 180 5.0 5.0 0.00 0.00 0.00 55 1009.8
20260506150430 70 112 4.0 4.0 0.00 0.00 0.00 56 1009.9
20260506145930 70 202 1.0 1.0 0.00 0.00 0.00 55 1010.1
20260506145430 70 202 0.0 4.0 0.00 0.00 0.00 54 1010.0
20260506144930 70 270 4.0 4.0 0.00 0.00 0.00 55 1010.0
20260506144430 70 247 3.0 7.0 0.00 0.00 0.00 55 1010.2
20260506143930 70 180 7.0 7.0 0.00 0.00 0.00 55 1010.2
20260506143430 70 112 2.0 6.0 0.00 0.00 0.00 55 1010.2
20260506142930 70 225 5.0 5.0 0.00 0.00 0.00 53 1010.3
20260506142430 69 180 0.0 0.0 0.00 0.00 0.00 54 1010.2
20260506141930 69 225 0.0 7.0 0.00 0.00 0.00 54 1010.3
20260506141430 69 247 7.0 7.0 0.00 0.00 0.00 53 1010.3
20260506140930 69 202 4.0 4.0 0.00 0.00 0.00 53 1010.5
20260506140430 69 202 4.0 5.0 0.00 0.00 0.00 53 1010.4
20260506135930 69 225 1.0 6.0 0.00 0.00 0.00 53 1010.5
20260506135430 68 225 6.0 6.0 0.00 0.00 0.00 55 1010.6
20260506134930 69 225 6.0 6.0 0.00 0.00 0.00 55 1010.5
20260506134430 69 202 5.0 9.0 0.00 0.00 0.00 54 1010.8
20260506133930 69 180 9.0 9.0 0.00 0.00 0.00 54 1010.7
20260506133430 69 135 9.0 9.0 0.00 0.00 0.00 54 1010.6
20260506132930 69 202 2.0 6.0 0.00 0.00 0.00 53 1010.7
20260506132430 69 225 6.0 7.0 0.00 0.00 0.00 52 1010.7
20260506131930 69 247 7.0 7.0 0.00 0.00 0.00 52 1010.9
20260506131430 69 225 3.0 8.0 0.00 0.00 0.00 53 1010.8
20260506130930 69 225 8.0 9.0 0.00 0.00 0.00 53 1010.9
20260506130430 69 180 2.0 2.0 0.00 0.00 0.00 52 1011.0
20260506125930 69 202 0.0 8.0 0.00 0.00 0.00 51 1010.9
20260506125430 69 135 8.0 8.0 0.00 0.00 0.00 51 1011.2
20260506124930 69 225 6.0 11.0 0.00 0.00 0.00 47 1011.0
20260506124430 70 247 11.0 11.0 0.00 0.00 0.00 47 1011.2
20260506123930 71 247 11.0 11.0 0.00 0.00 0.00 47 1011.1
20260506123430 71 202 2.0 8.0 0.00 0.00 0.00 46 1011.0
20260506122930 71 247 8.0 8.0 0.00 0.00 0.00 44 1011.2
20260506122430 71 225 5.0 9.0 0.00 0.00 0.00 42 1011.0
20260506121930 71 270 9.0 9.0 0.00 0.00 0.00 42 1011.1
20260506121430 71 225 6.0 14.0 0.00 0.00 0.00 41 1011.0
20260506120930 71 247 6.0 9.0 0.00 0.00 0.00 41 1011.2
20260506120430 71 247 9.0 9.0 0.00 0.00 0.00 41 1011.2
20260506115930 71 225 6.0 6.0 0.00 0.00 0.00 42 1011.2
20260506115430 70 247 4.0 4.0 0.00 0.00 0.00 43 1011.2
20260506114931 71 270 3.0 7.0 0.00 0.00 0.00 43 1011.2
20260506114430 71 247 7.0 7.0 0.00 0.00 0.00 43 1011.2
20260506113930 71 270 6.0 6.0 0.00 0.00 0.00 42 1011.3
20260506113431 70 0 2.0 2.0 0.00 0.00 0.00 41 1011.3
20260506112931 70 247 0.0 8.0 0.00 0.00 0.00 41 1011.6
20260506112431 70 270 3.0 7.0 0.00 0.00 0.00 43 1011.5
20260506111931 69 225 4.0 4.0 0.00 0.00 0.00 45 1011.4
20260506111431 70 202 4.0 5.0 0.00 0.00 0.00 44 1011.5
20260506110931 70 22 5.0 5.0 0.00 0.00 0.00 44 1011.6
20260506110431 70 0 2.0 2.0 0.00 0.00 0.00 44 1011.6
20260506105931 71 135 0.0 6.0 0.00 0.00 0.00 44 1011.5
20260506105431 71 112 5.0 8.0 0.00 0.00 0.00 44 1011.6
20260506104931 71 112 4.0 4.0 0.00 0.00 0.00 44 1011.5
20260506104431 70 112 2.0 2.0 0.00 0.00 0.00 44 1011.6
20260506103931 70 0 0.0 3.0 0.00 0.00 0.00 45 1011.6
20260506103431 70 90 3.0 3.0 0.00 0.00 0.00 44 1011.6
20260506102931 70 0 3.0 6.0 0.00 0.00 0.00 43 1011.6
20260506102431 70 225 0.0 9.0 0.00 0.00 0.00 43 1011.8
20260506101931 70 202 1.0 6.0 0.00 0.00 0.00 43 1011.7
20260506101431 69 202 6.0 6.0 0.00 0.00 0.00 43 1011.7
20260506100931 69 315 3.0 3.0 0.00 0.00 0.00 43 1011.9
20260506100431 69 315 3.0 9.0 0.00 0.00 0.00 43 1011.8
20260506095931 69 225 9.0 9.0 0.00 0.00 0.00 43 1011.7
20260506095431 69 225 0.0 11.0 0.00 0.00 0.00 43 1011.9
20260506094931 69 225 11.0 11.0 0.00 0.00 0.00 43 1011.9
20260506094431 69 0 4.0 8.0 0.00 0.00 0.00 43 1012.0
20260506093931 69 247 8.0 8.0 0.00 0.00 0.00 43 1011.9
20260506093431 69 247 1.0 7.0 0.00 0.00 0.00 43 1011.8
20260506092931 69 270 7.0 7.0 0.00 0.00 0.00 43 1012.1
20260506092431 68 270 7.0 7.0 0.00 0.00 0.00 44 1012.1
20260506091931 68 270 7.0 7.0 0.00 0.00 0.00 44 1012.2
20260506091431 68 202 6.0 6.0 0.00 0.00 0.00 44 1012.0
20260506090931 67 315 0.0 0.0 0.00 0.00 0.00 45 1012.0
20260506090431 67 315 0.0 6.0 0.00 0.00 0.00 45 1012.1
20260506085931 67 247 2.0 6.0 0.00 0.00 0.00 45 1012.0
20260506085431 67 0 3.0 3.0 0.00 0.00 0.00 46 1011.9
20260506084931 67 0 3.0 3.0 0.00 0.00 0.00 46 1012.0
20260506084431 67 270 0.0 0.0 0.00 0.00 0.00 46 1012.0
20260506083931 66 270 0.0 0.0 0.00 0.00 0.00 48 1011.9
20260506083431 66 270 0.0 3.0 0.00 0.00 0.00 48 1011.8
20260506082931 66 337 3.0 3.0 0.00 0.00 0.00 48 1011.9
20260506082431 66 247 0.0 6.0 0.00 0.00 0.00 49 1011.9
20260506081931 65 337 6.0 8.0 0.00 0.00 0.00 50 1011.9
20260506081431 65 0 5.0 5.0 0.00 0.00 0.00 50 1011.7
20260506080931 65 337 2.0 15.0 0.00 0.00 0.00 50 1011.7
20260506080431 64 0 9.0 9.0 0.00 0.00 0.00 51 1011.7
20260506073431 63 337 0.0 6.0 0.00 0.00 0.00 53 1011.6
20260506072931 63 337 6.0 6.0 0.00 0.00 0.00 54 1011.5
20260506072431 63 337 3.0 3.0 0.00 0.00 0.00 55 1011.6
20260506071931 63 337 3.0 5.0 0.00 0.00 0.00 55 1011.6
20260506071431 62 0 3.0 3.0 0.00 0.00 0.00 56 1011.4
20260506070931 62 0 0.0 2.0 0.00 0.00 0.00 56 1011.3
20260506070431 61 337 1.0 10.0 0.00 0.00 0.00 57 1011.5
20260506062432 59 22 5.0 6.0 0.00 0.02 0.00 60 1011.2
20260506061932 59 0 3.0 6.0 0.00 0.02 0.00 60 1011.3
20260506061432 59 270 2.0 6.0 0.00 0.02 0.00 61 1011.3
20260506060932 58 337 4.0 14.0 0.00 0.02 0.00 61 1011.5
20260506060432 57 202 14.0 14.0 0.00 0.02 0.00 61 1011.3
20260506050932 57 225 4.0 5.0 0.00 0.02 0.00 64 1010.9
20260506050432 57 0 5.0 5.0 0.00 0.02 0.00 64 1010.7
20260506044932 57 0 7.0 9.0 0.00 0.02 0.00 65 1010.5
20260506044432 57 0 7.0 9.0 0.00 0.02 0.00 64 1010.8
20260506043932 57 337 4.0 4.0 0.00 0.02 0.00 64 1010.9
20260506043432 57 202 0.0 1.0 0.00 0.02 0.00 64 1011.0
20260506042932 57 247 1.0 4.0 0.00 0.02 0.00 64 1011.0
20260506042432 57 315 0.0 0.0 0.00 0.02 0.00 64 1011.1
20260506041932 57 315 0.0 1.0 0.00 0.02 0.00 63 1010.9
20260506041432 57 202 1.0 5.0 0.00 0.02 0.00 63 1011.0
20260506040932 57 315 2.0 2.0 0.00 0.02 0.00 63 1011.0
20260506040432 57 0 1.0 1.0 0.00 0.02 0.00 63 1011.0
20260506035932 57 0 1.0 6.0 0.00 0.02 0.00 63 1010.9
20260506035432 57 337 6.0 6.0 0.00 0.02 0.00 63 1011.0
20260506034932 57 337 6.0 6.0 0.00 0.02 0.00 63 1010.9
20260506034432 57 337 6.0 6.0 0.00 0.02 0.00 63 1010.7
20260506033932 57 22 4.0 4.0 0.00 0.02 0.00 64 1010.5
20260506033432 57 22 4.0 4.0 0.00 0.02 0.00 64 1010.4
20260506032932 57 22 4.0 6.0 0.00 0.02 0.00 65 1010.4
20260506032432 57 0 6.0 6.0 0.00 0.02 0.00 65 1010.4
20260506031932 57 0 6.0 8.0 0.00 0.02 0.00 65 1010.4
20260506031432 57 0 5.0 5.0 0.00 0.02 0.00 66 1010.5
20260506030932 57 0 1.0 6.0 0.00 0.02 0.00 66 1010.6
20260506030432 57 0 6.0 6.0 0.00 0.02 0.00 66 1010.4
20260506025932 57 0 4.0 7.0 0.00 0.02 0.00 66 1010.4
20260506025432 57 22 7.0 7.0 0.00 0.02 0.00 66 1010.2
20260506024932 57 22 7.0 10.0 0.00 0.02 0.00 66 1010.2
20260506024432 57 0 10.0 10.0 0.00 0.02 0.00 66 1010.3
20260506023932 57 112 3.0 5.0 0.00 0.02 0.00 67 1010.5
20260506023432 57 22 5.0 5.0 0.00 0.02 0.00 67 1010.4
20260506022932 57 22 3.0 8.0 0.00 0.02 0.00 67 1010.5
20260506022432 57 315 0.0 0.0 0.00 0.02 0.00 67 1010.5
20260506021932 57 0 0.0 5.0 0.00 0.02 0.00 67 1010.5
20260506021432 57 337 5.0 5.0 0.00 0.02 0.00 67 1010.6
20260506020932 57 0 3.0 5.0 0.00 0.02 0.00 67 1010.6
20260506015932 57 337 12.0 12.0 0.00 0.02 0.00 67 1010.4
20260506015432 57 337 6.0 6.0 0.00 0.02 0.00 67 1010.4
20260506014932 57 337 6.0 6.0 0.00 0.02 0.00 67 1010.1
20260506014432 57 0 2.0 2.0 0.00 0.02 0.00 67 1010.4
20260506013933 57 292 0.0 3.0 0.00 0.02 0.00 67 1010.4
20260506013432 57 337 3.0 4.0 0.00 0.02 0.00 67 1010.4
20260506012932 57 225 4.0 4.0 0.00 0.02 0.00 67 1010.5
20260506012433 57 247 2.0 2.0 0.00 0.02 0.00 67 1010.5
20260506011932 58 315 0.0 0.0 0.00 0.02 0.00 67 1010.6
20260506011432 58 315 0.0 3.0 0.00 0.02 0.00 67 1010.6
20260506010932 58 337 3.0 3.0 0.00 0.02 0.00 67 1010.5
20260506010432 58 337 0.0 3.0 0.00 0.02 0.00 67 1010.6
20260506005932 58 22 3.0 3.0 0.00 0.02 0.00 67 1010.6
20260506005433 58 0 1.0 1.0 0.00 0.02 0.00 67 1010.5
20260506004933 58 247 0.0 3.0 0.00 0.02 0.00 67 1010.5
20260506004433 58 292 3.0 3.0 0.00 0.02 0.00 67 1010.6
20260506003933 58 337 2.0 2.0 0.00 0.02 0.00 67 1010.7
20260506003433 58 270 0.0 0.0 0.00 0.02 0.00 67 1010.8
20260506002933 58 270 0.0 4.0 0.00 0.02 0.00 67 1010.7
20260506002433 59 0 3.0 3.0 0.00 0.02 0.00 66 1010.6
20260506001933 59 0 3.0 5.0 0.00 0.02 0.00 66 1010.8
20260506001433 59 337 5.0 5.0 0.00 0.02 0.00 65 1010.6
20260506000933 59 247 5.0 5.0 0.00 0.02 0.00 65 1010.8
20260506000433 59 225 0.0 3.0 0.00 0.02 0.00 65 1010.9
20260505235933 59 247 0.0 0.0 0.00 0.02 0.00 65 1010.9
20260505235433 59 247 0.0 0.0 0.00 0.02 0.00 65 1010.9
20260505233433 59 225 2.0 8.0 0.00 0.02 0.00 68 1011.0
20260505232933 58 225 6.0 6.0 0.00 0.02 0.00 68 1010.9
20260505232433 58 247 0.0 0.0 0.00 0.02 0.00 66 1010.9
20260505231933 58 225 0.0 3.0 0.00 0.02 0.00 66 1010.9
20260505231435 58 225 0.0 0.0 0.00 0.02 0.00 67 1010.7
20260505230933 58 225 0.0 1.0 0.00 0.02 0.00 67 1010.7
20260505230433 59 225 1.0 1.0 0.00 0.02 0.00 68 1010.9
20260505225933 59 225 0.0 0.0 0.00 0.02 0.00 68 1010.6
20260505225433 59 225 0.0 3.0 0.00 0.02 0.00 69 1010.7
20260505224933 59 225 1.0 1.0 0.00 0.02 0.00 69 1010.5
20260505224433 59 225 1.0 1.0 0.00 0.02 0.00 69 1010.6
20260505223933 59 225 0.0 0.0 0.00 0.02 0.00 69 1010.6
20260505223433 59 225 0.0 0.0 0.00 0.02 0.00 69 1010.6
20260505222933 59 225 0.0 0.0 0.00 0.02 0.00 69 1010.7
20260505222433 60 225 0.0 0.0 0.00 0.02 0.00 69 1010.6
20260505221933 60 225 0.0 0.0 0.00 0.02 0.00 69 1010.7
20260505221433 60 225 0.0 0.0 0.00 0.02 0.00 70 1010.8
20260505220933 60 225 0.0 2.0 0.00 0.02 0.00 70 1010.9
20260505220433 60 225 2.0 2.0 0.00 0.02 0.00 72 1010.9
20260505215933 60 247 0.0 0.0 0.00 0.02 0.00 72 1010.8
20260505215433 60 22 0.0 0.0 0.00 0.02 0.00 75 1011.1
20260505214933 60 22 0.0 1.0 0.00 0.02 0.00 75 1011.1
20260505214433 60 22 1.0 4.0 0.00 0.02 0.00 76 1011.5
20260505213933 60 0 4.0 4.0 0.00 0.02 0.00 78 1011.5
20260505213433 60 0 4.0 6.0 0.00 0.02 0.00 78 1011.6
20260505212933 60 292 0.0 3.0 0.00 0.02 0.00 80 1011.5
20260505212433 60 22 3.0 3.0 0.00 0.02 0.00 80 1011.5
20260505211933 60 270 0.0 1.0 0.00 0.02 0.00 80 1011.7
20260505211433 60 337 1.0 5.0 0.00 0.02 0.00 80 1011.6
20260505210933 61 0 5.0 5.0 0.00 0.02 0.00 79 1011.7
20260505210433 61 0 5.0 5.0 0.00 0.02 0.00 78 1011.5
20260505205933 62 0 3.0 3.0 0.00 0.02 0.00 78 1011.6
20260505205433 62 292 0.0 0.0 0.00 0.02 0.00 78 1011.3
20260505204933 62 337 0.0 3.0 0.00 0.02 0.00 78 1011.3
20260505204433 62 180 3.0 3.0 0.00 0.02 0.00 77 1011.2
20260505203933 62 0 3.0 7.0 0.00 0.02 0.00 77 1011.0
20260505203433 62 247 7.0 7.0 0.00 0.02 0.00 78 1010.9
20260505202933 62 247 7.0 7.0 0.00 0.02 0.00 78 1010.8
20260505202433 62 225 0.0 0.0 0.00 0.02 0.00 78 1010.7
20260505201933 62 225 0.0 6.0 0.00 0.02 0.00 78 1010.6
20260505201433 62 225 2.0 4.0 0.00 0.02 0.00 77 1010.7
20260505200933 62 247 4.0 4.0 0.00 0.02 0.00 77 1010.6
20260505200433 62 247 3.0 5.0 0.00 0.02 0.00 77 1010.5
20260505195933 62 225 5.0 5.0 0.00 0.02 0.00 76 1010.6
20260505195433 62 225 5.0 5.0 0.00 0.02 0.00 76 1010.5
20260505194933 62 247 4.0 4.0 0.00 0.02 0.00 76 1010.5
20260505194434 62 0 0.0 0.0 0.00 0.02 0.00 76 1010.4
20260505193933 62 0 0.0 0.0 0.00 0.02 0.00 75 1010.3
20260505193433 62 0 0.0 0.0 0.00 0.02 0.00 75 1010.1
20260505192933 62 0 0.0 0.0 0.00 0.02 0.00 75 1010.0
20260505192434 62 0 0.0 2.0 0.00 0.02 0.00 76 1009.7
20260505191934 62 45 2.0 2.0 0.00 0.02 0.00 76 1009.5
20260505191433 62 112 0.0 0.0 0.00 0.02 0.00 76 1009.8
20260505190934 62 112 0.0 2.0 0.00 0.02 0.00 76 1010.1
20260505190434 62 112 2.0 2.0 0.00 0.02 0.00 76 1009.8
20260505185934 62 112 1.0 1.0 0.00 0.02 0.00 75 1009.8
20260505185434 63 90 0.0 0.0 0.00 0.02 0.00 75 1009.8
20260505184934 63 90 0.0 2.0 0.00 0.02 0.00 75 1009.9
20260505184434 63 112 1.0 1.0 0.00 0.02 0.00 75 1009.8
20260505183934 63 22 0.0 0.0 0.00 0.02 0.00 75 1009.9
20260505183434 63 22 0.0 0.0 0.00 0.02 0.00 75 1010.1
20260505182934 63 22 0.0 0.0 0.00 0.18 0.00 75 1010.0
20260505182434 63 22 0.0 0.0 0.00 0.18 0.00 75 1009.9
20260505181934 62 22 0.0 0.0 0.00 0.18 0.00 75 1010.0
20260505181434 62 22 0.0 1.0 0.00 0.18 0.00 75 1009.9
20260505180934 63 22 1.0 1.0 0.00 0.18 0.00 75 1009.8
20260505180434 63 22 0.0 1.0 0.00 0.18 0.00 75 1009.9
20260505175934 63 22 0.0 3.0 0.00 0.18 0.00 73 1009.7
20260505175434 63 22 3.0 6.0 0.00 0.18 0.00 73 1010.0
20260505174934 63 0 6.0 6.0 0.00 0.18 0.00 73 1009.7
20260505174434 63 0 4.0 6.0 0.00 0.18 0.00 72 1009.8
20260505173934 63 337 6.0 6.0 0.00 0.18 0.00 72 1010.0
20260505173434 63 0 1.0 1.0 0.00 0.18 0.00 72 1009.8
20260505172934 64 45 1.0 1.0 0.00 0.18 0.00 71 1009.9
20260505172434 64 45 1.0 2.0 0.00 0.18 0.00 69 1009.8
20260505171934 64 45 2.0 4.0 0.00 0.18 0.00 69 1009.7
20260505171434 64 90 2.0 5.0 0.00 0.18 0.00 69 1009.7
20260505170934 65 67 5.0 5.0 0.00 0.18 0.00 67 1009.5